Location: Newark
(52.3735°N, 16.9806°E)
Time: 05:00:01
(UTC+00:00)

LilacSat-2 - Pass Details

Date: 29 November 2021
Orbit: 511 x 532 km, 97.5° (Epoch: 16 January)

Event Time Altitude Azimuth Distance (km) Brightness Sun altitude
Rises 15:20:54 0° 155° (SSE) 2,623 ? -5.6°
Reaches altitude 10° 15:22:59 10° 151° (SSE) 1,744 ? -5.9°
Maximum altitude 15:26:42 59° 72° (ENE) 604 ? -6.4°
Drops below altitude 10° 15:30:27 10° 353° (N) 1,771 ? -6.9°
Sets 15:32:35 0° 349° (N) 2,669 ? -7.2°
